timestamp,wind_dir_avg,wind_spd_avg,wind_spd_max_dir,wind_spd_gust,battery_voltage,lat,long
2023-05-22 00:04:00+00:00,224.0,9.63,220.0,12.04,12.89,47.59359,-54.27349
2023-05-22 00:14:00+00:00,232.0,10.05,242.0,13.6,12.41,47.59359,-54.27349
2023-05-22 00:24:00+00:00,232.0,10.9,232.0,13.75,12.41,47.59359,-54.27349
2023-05-22 00:34:00+00:00,228.0,13.14,227.0,15.42,12.41,47.59359,-54.27349
2023-05-22 00:44:00+00:00,231.0,12.37,236.0,14.38,12.41,47.59359,-54.27349
2023-05-22 00:54:00+00:00,232.0,12.22,229.0,14.66,12.41,47.59359,-54.27349
2023-05-22 01:04:00+00:00,229.0,12.15,230.0,15.54,12.41,47.59359,-54.27349
2023-05-22 01:14:00+00:00,232.0,13.64,228.0,16.3,12.33,47.59359,-54.27349
2023-05-22 01:24:00+00:00,227.0,14.08,228.0,16.02,12.33,47.59359,-54.27349
2023-05-22 01:34:00+00:00,230.0,13.8,228.0,15.92,12.33,47.59359,-54.27349
2023-05-22 01:44:00+00:00,218.0,13.91,228.0,16.69,12.33,47.59359,-54.27349
2023-05-22 01:54:00+00:00,225.0,12.09,231.0,14.79,12.33,47.59359,-54.27349
2023-05-22 02:04:00+00:00,223.0,12.87,222.0,16.25,12.33,47.59359,-54.27349
2023-05-22 02:14:00+00:00,226.0,12.59,234.0,14.99,12.33,47.59359,-54.27349
2023-05-22 02:24:00+00:00,228.0,11.63,233.0,15.2,12.33,47.59359,-54.27349
2023-05-22 02:34:00+00:00,231.0,12.28,238.0,14.62,12.33,47.59359,-54.27349
2023-05-22 02:44:00+00:00,224.0,9.75,221.0,10.98,12.33,47.59359,-54.27349
2023-05-22 02:54:00+00:00,221.0,9.57,227.0,11.67,12.33,47.59359,-54.27349
2023-05-22 03:04:00+00:00,219.0,11.86,228.0,14.45,12.33,47.59359,-54.27349
2023-05-22 03:14:00+00:00,216.0,12.62,215.0,15.52,12.33,47.59359,-54.27349
2023-05-22 03:24:00+00:00,209.0,9.63,220.0,12.43,12.33,47.59359,-54.27349
2023-05-22 03:34:00+00:00,215.0,12.51,230.0,14.87,12.33,47.59359,-54.27349
2023-05-22 03:44:00+00:00,216.0,12.77,219.0,15.49,12.33,47.59359,-54.27349
2023-05-22 03:54:00+00:00,214.0,13.03,222.0,15.77,12.33,47.59359,-54.27349
2023-05-22 04:04:00+00:00,218.0,12.51,223.0,15.08,12.33,47.59359,-54.27349
2023-05-22 04:14:00+00:00,217.0,12.98,226.0,16.85,12.25,47.59359,-54.27349
2023-05-22 04:24:00+00:00,219.0,11.99,217.0,15.3,12.25,47.59359,-54.27349
2023-05-22 04:34:00+00:00,216.0,12.95,219.0,15.33,12.25,47.59359,-54.27349
2023-05-22 04:44:00+00:00,218.0,12.87,230.0,15.14,12.25,47.59359,-54.27349
2023-05-22 04:54:00+00:00,219.0,12.17,228.0,14.68,12.25,47.59359,-54.27349
2023-05-22 05:04:00+00:00,216.0,9.82,218.0,12.78,12.25,47.59359,-54.27349
2023-05-22 05:14:01+00:00,217.0,9.65,218.0,11.75,12.25,47.59359,-54.27349
2023-05-22 05:24:01+00:00,207.0,7.56,219.0,10.12,12.25,47.59359,-54.27349
2023-05-22 05:34:01+00:00,207.0,8.17,220.0,11.2,12.25,47.59359,-54.27349
2023-05-22 05:44:01+00:00,197.0,8.93,201.0,10.45,12.25,47.59359,-54.27349
2023-05-22 05:54:01+00:00,196.0,10.5,209.0,12.73,12.25,47.59359,-54.27349
2023-05-22 06:04:01+00:00,196.0,9.72,211.0,12.0,12.25,47.59359,-54.27349
2023-05-22 06:14:00+00:00,199.0,9.58,215.0,11.91,12.25,47.59359,-54.27349
2023-05-22 06:24:00+00:00,202.0,10.08,207.0,12.39,12.25,47.59359,-54.27349
2023-05-22 06:34:00+00:00,205.0,10.08,215.0,13.03,12.25,47.59359,-54.27349
2023-05-22 06:44:00+00:00,201.0,9.62,202.0,10.82,12.25,47.59359,-54.27349
2023-05-22 06:54:00+00:00,198.0,9.85,211.0,11.85,12.25,47.59359,-54.27349
2023-05-22 07:04:00+00:00,198.0,9.92,204.0,12.11,12.25,47.59359,-54.27349
2023-05-22 07:14:00+00:00,206.0,9.23,206.0,10.21,12.17,47.59359,-54.27349
2023-05-22 07:24:00+00:00,205.0,8.7,204.0,9.63,12.17,47.59359,-54.27349
2023-05-22 07:34:00+00:00,205.0,8.63,203.0,9.63,12.17,47.59359,-54.27349
2023-05-22 07:44:00+00:00,208.0,8.93,208.0,10.08,12.17,47.59359,-54.27349
2023-05-22 07:54:00+00:00,209.0,8.85,221.0,11.11,12.17,47.59359,-54.27349
2023-05-22 08:04:00+00:00,206.0,9.62,204.0,11.27,12.17,47.59359,-54.27349
2023-05-22 08:14:00+00:00,211.0,8.14,211.0,8.86,12.09,47.59359,-54.27349
2023-05-22 08:24:00+00:00,214.0,8.22,212.0,9.24,12.09,47.59359,-54.27349
2023-05-22 08:34:00+00:00,212.0,8.54,212.0,9.29,12.09,47.59359,-54.27349
2023-05-22 08:44:00+00:00,211.0,8.43,213.0,9.7,12.09,47.59359,-54.27349
2023-05-22 08:54:00+00:00,205.0,9.11,208.0,10.16,12.09,47.59359,-54.27349
2023-05-22 09:04:00+00:00,209.0,7.8,210.0,8.83,12.09,47.59359,-54.27349
2023-05-22 09:14:00+00:00,203.0,8.72,209.0,9.71,12.17,47.59359,-54.27349
2023-05-22 09:24:00+00:00,208.0,8.39,210.0,9.51,12.17,47.59359,-54.27349
2023-05-22 09:34:00+00:00,212.0,8.58,211.0,9.55,12.17,47.59359,-54.27349
2023-05-22 09:44:00+00:00,216.0,7.12,220.0,7.94,12.17,47.59359,-54.27349
2023-05-22 09:54:00+00:00,213.0,7.45,214.0,8.28,12.17,47.59359,-54.27349
2023-05-22 10:04:00+00:00,209.0,8.36,210.0,9.21,12.17,47.59359,-54.27349
2023-05-22 10:14:00+00:00,207.0,7.43,208.0,8.05,12.41,47.59359,-54.27349
2023-05-22 10:24:00+00:00,204.0,7.11,206.0,8.04,12.41,47.59359,-54.27349
2023-05-22 10:34:00+00:00,212.0,7.9,213.0,8.52,12.41,47.59359,-54.27349
2023-05-22 10:44:00+00:00,209.0,6.4,208.0,6.97,12.41,47.59359,-54.27349
2023-05-22 10:54:00+00:00,208.0,6.93,209.0,7.37,12.41,47.59359,-54.27349
2023-05-22 11:04:00+00:00,212.0,6.42,214.0,6.75,12.41,47.59359,-54.27349
2023-05-22 11:14:00+00:00,209.0,6.2,211.0,6.77,13.13,47.59359,-54.27349
2023-05-22 11:24:00+00:00,192.0,5.89,193.0,6.51,13.13,47.59359,-54.27349
2023-05-22 11:34:00+00:00,210.0,5.95,209.0,6.48,13.13,47.59359,-54.27349
2023-05-22 11:44:00+00:00,207.0,5.5,210.0,5.81,13.13,47.59359,-54.27349
2023-05-22 11:54:00+00:00,207.0,5.72,210.0,6.34,13.13,47.59359,-54.27349
2023-05-22 12:04:00+00:00,210.0,3.93,210.0,4.16,13.13,47.59359,-54.27349
2023-05-22 12:14:00+00:00,196.0,4.57,198.0,5.18,13.53,47.59359,-54.27349
2023-05-22 12:24:00+00:00,212.0,4.95,210.0,5.17,13.53,47.59359,-54.27349
2023-05-22 12:34:00+00:00,204.0,4.7,206.0,5.17,13.53,47.59359,-54.27349
2023-05-22 12:44:00+00:00,204.0,4.68,204.0,5.18,13.53,47.59359,-54.27349
2023-05-22 12:54:00+00:00,187.0,4.42,192.0,4.9,13.53,47.59359,-54.27349
2023-05-22 13:04:00+00:00,211.0,5.65,211.0,6.37,13.53,47.59359,-54.27349
2023-05-22 13:14:00+00:00,207.0,4.66,205.0,5.0,13.92,47.59359,-54.27349
2023-05-22 13:24:00+00:00,214.0,4.35,216.0,4.73,13.92,47.59359,-54.27349
2023-05-22 13:34:00+00:00,207.0,2.26,209.0,2.54,13.92,47.59359,-54.27349
2023-05-22 13:44:00+00:00,197.0,2.82,199.0,3.08,13.92,47.59359,-54.27349
2023-05-22 13:54:00+00:00,200.0,2.64,193.0,3.47,13.92,47.59359,-54.27349
2023-05-22 14:04:00+00:00,194.0,5.0,194.0,5.37,13.92,47.59359,-54.27349
2023-05-22 14:14:00+00:00,189.0,4.6,189.0,4.75,14.08,47.59359,-54.27349
2023-05-22 14:24:00+00:00,187.0,5.26,189.0,5.66,14.08,47.59359,-54.27349
2023-05-22 14:34:00+00:00,192.0,5.25,194.0,5.42,14.08,47.59359,-54.27349
2023-05-22 14:44:00+00:00,224.0,3.15,226.0,3.77,14.08,47.59359,-54.27349
2023-05-22 14:54:00+00:00,204.0,2.51,205.0,3.16,14.08,47.59359,-54.27349
2023-05-22 15:04:00+00:00,212.0,2.09,220.0,2.6,14.08,47.59359,-54.27349
2023-05-22 15:14:00+00:00,187.0,2.59,189.0,2.92,13.68,47.59359,-54.27349
2023-05-22 15:24:00+00:00,186.0,2.97,189.0,3.29,13.68,47.59359,-54.27349
2023-05-22 15:34:00+00:00,209.0,3.19,220.0,3.73,13.68,47.59359,-54.27349
2023-05-22 15:44:00+00:00,243.0,3.33,245.0,3.91,13.68,47.59359,-54.27349
2023-05-22 15:54:00+00:00,182.0,1.35,180.0,1.67,13.68,47.59359,-54.27349
2023-05-22 16:04:00+00:00,195.0,2.53,200.0,2.79,13.68,47.59359,-54.27349
2023-05-22 16:14:00+00:00,191.0,3.53,191.0,3.83,13.76,47.59359,-54.27349
2023-05-22 16:24:00+00:00,183.0,4.46,183.0,4.98,13.76,47.59359,-54.27349
2023-05-22 16:34:00+00:00,191.0,5.43,193.0,5.75,13.76,47.59359,-54.27349
2023-05-22 16:44:00+00:00,207.0,4.79,207.0,5.33,13.76,47.59359,-54.27349
2023-05-22 16:54:00+00:00,220.0,3.59,220.0,3.96,13.76,47.59359,-54.27349
2023-05-22 17:04:00+00:00,201.0,4.06,199.0,4.39,13.76,47.59359,-54.27349
2023-05-22 17:14:00+00:00,175.0,2.37,178.0,2.59,13.6,47.59359,-54.27349
2023-05-22 17:24:00+00:00,173.0,2.41,176.0,2.68,13.6,47.59359,-54.27349
2023-05-22 17:34:00+00:00,176.0,1.6,180.0,2.15,13.6,47.59359,-54.27349
2023-05-22 17:44:00+00:00,210.0,3.05,213.0,3.76,13.6,47.59359,-54.27349
2023-05-22 17:54:00+00:00,199.0,1.44,212.0,2.06,13.6,47.59359,-54.27349
2023-05-22 18:04:00+00:00,179.0,1.87,177.0,2.4,13.6,47.59359,-54.27349
2023-05-22 18:14:01+00:00,190.0,3.54,190.0,3.95,13.6,47.59359,-54.27349
2023-05-22 18:24:01+00:00,195.0,2.41,195.0,2.77,13.6,47.59359,-54.27349
2023-05-22 18:34:01+00:00,204.0,2.59,205.0,2.88,13.6,47.59359,-54.27349
2023-05-22 18:44:01+00:00,189.0,2.86,193.0,3.07,13.6,47.59359,-54.27349
2023-05-22 18:54:01+00:00,184.0,2.04,184.0,2.15,13.6,47.59359,-54.27349
2023-05-22 19:04:01+00:00,80.0,2.14,94.0,4.94,13.6,47.59359,-54.27349
2023-05-22 19:14:00+00:00,66.0,7.93,68.0,8.59,13.68,47.59359,-54.27349
2023-05-22 19:24:00+00:00,73.0,4.95,69.0,6.65,13.68,47.59359,-54.27349
2023-05-22 19:34:00+00:00,75.0,6.16,68.0,7.78,13.68,47.59359,-54.27349
2023-05-22 19:44:00+00:00,64.0,7.2,67.0,8.79,13.68,47.59359,-54.27349
2023-05-22 19:54:00+00:00,69.0,7.14,69.0,7.62,13.68,47.59359,-54.27349
2023-05-22 20:04:00+00:00,72.0,7.27,72.0,8.92,13.68,47.59359,-54.27349
2023-05-22 20:14:00+00:00,70.0,7.59,70.0,8.78,13.29,47.59359,-54.27349
2023-05-22 20:24:00+00:00,71.0,7.19,65.0,8.56,13.29,47.59359,-54.27349
2023-05-22 20:34:00+00:00,78.0,7.22,87.0,14.09,13.29,47.59359,-54.27349
2023-05-22 20:44:00+00:00,72.0,7.8,82.0,11.27,13.29,47.59359,-54.27349
2023-05-22 20:54:00+00:00,67.0,8.37,74.0,13.54,13.29,47.59359,-54.27349
2023-05-22 21:04:00+00:00,61.0,7.35,58.0,8.17,13.29,47.59359,-54.27349
2023-05-22 21:14:00+00:00,65.0,7.68,62.0,8.59,13.05,47.59359,-54.27349
2023-05-22 21:24:00+00:00,71.0,7.93,77.0,11.97,13.05,47.59359,-54.27349
2023-05-22 21:34:00+00:00,73.0,8.55,77.0,13.03,13.05,47.59359,-54.27349
2023-05-22 21:44:00+00:00,62.0,7.36,67.0,9.57,13.05,47.59359,-54.27349
2023-05-22 21:54:00+00:00,51.0,6.44,50.0,7.18,13.05,47.59359,-54.27349
2023-05-22 22:04:00+00:00,63.0,7.58,56.0,8.73,13.05,47.59359,-54.27349
2023-05-22 22:14:00+00:00,60.0,7.2,61.0,8.23,12.65,47.59359,-54.27349
2023-05-22 22:24:00+00:00,61.0,8.22,58.0,9.33,12.65,47.59359,-54.27349
2023-05-22 22:34:00+00:00,60.0,8.16,63.0,9.08,12.65,47.59359,-54.27349
2023-05-22 22:44:00+00:00,58.0,7.77,49.0,9.53,12.65,47.59359,-54.27349
2023-05-22 22:54:00+00:00,56.0,8.89,69.0,11.63,12.65,47.59359,-54.27349
2023-05-22 23:04:00+00:00,64.0,8.12,76.0,12.78,12.65,47.59359,-54.27349
2023-05-22 23:14:00+00:00,63.0,7.58,67.0,8.63,12.41,47.59359,-54.27349
2023-05-22 23:24:00+00:00,55.0,7.95,54.0,8.67,12.41,47.59359,-54.27349
2023-05-22 23:34:00+00:00,55.0,7.83,52.0,8.94,12.41,47.59359,-54.27349
2023-05-22 23:44:00+00:00,53.0,8.24,52.0,9.4,12.41,47.59359,-54.27349
2023-05-22 23:54:00+00:00,55.0,8.41,51.0,9.3,12.41,47.59359,-54.27349
